When you browse on this site, cookies collect data to enhance your experience and personalize the content and advertising you see.
Visit our Privacy Policy to learn more. By continuing to use the site, you agree to this use of cookies and data.
  • In Lithuania
  • List of Countries
  • For 7 days
  • Water Temperature
  • Satellite Maps
  • Weather Map
  • Weather Widgets
  • user-avatar
    Login

    Hourly Weather Charlottetown

    Today, 20 May, Monday

    Time Temperature Precipitation Wind Pressure Humidity
    00:00 +7°C° 0 mm 1 mps 763 mmHg 77%
    01:00 +6°C° 0 mm 2 mps 763 mmHg 78%
    02:00 +6°C° 0 mm 2 mps 763 mmHg 79%
    03:00 +6°C° 0.4 mm 2 mps 762 mmHg 84%
    04:00 +6°C° 0.4 mm 2 mps 762 mmHg 89%
    05:00 +5°C° 0.4 mm 3 mps 762 mmHg 94%
    06:00 +5°C° 1 mm 3 mps 762 mmHg 94%
    07:00 +5°C° 1 mm 4 mps 761 mmHg 95%
    08:00 +5°C° 0 mm 5 mps 760 mmHg 96%
    09:00 +4°C° 1.3 mm 6 mps 759 mmHg 96%
    10:00 +5°C° 1.3 mm 6 mps 759 mmHg 95%
    11:00 +5°C° 1.3 mm 7 mps 758 mmHg 95%
    12:00 +5°C° 0.9 mm 6 mps 757 mmHg 95%
    13:00 +5°C° 0.9 mm 6 mps 757 mmHg 96%
    14:00 +6°C° 0.9 mm 5 mps 756 mmHg 96%
    15:00 +6°C° 0.2 mm 4 mps 755 mmHg 96%
    16:00 +7°C° 0.2 mm 4 mps 755 mmHg 96%
    17:00 +7°C° 0.2 mm 4 mps 754 mmHg 97%
    18:00 +8°C° 0 mm 3 mps 754 mmHg 97%
    19:00 +8°C° 0 mm 3 mps 754 mmHg 98%
    20:00 +8°C° 0 mm 2 mps 754 mmHg 98%
    21:00 +8°C° 0.1 mm 3 mps 753 mmHg 98%
    22:00 +8°C° 0.1 mm 3 mps 753 mmHg 98%
    23:00 +7°C° 0.1 mm 3 mps 753 mmHg 98%

    Tomorrow, 21 May, Tuesday

    Time Temperature Precipitation Wind Pressure Humidity
    00:00 +8°C° 0.3 mm 3 mps 752 mmHg 98%
    01:00 +7°C° 0.3 mm 4 mps 751 mmHg 98%
    02:00 +7°C° 0.3 mm 4 mps 751 mmHg 98%
    03:00 +7°C° 0.2 mm 4 mps 750 mmHg 98%
    04:00 +9°C° 0.2 mm 3 mps 749 mmHg 98%
    05:00 +9°C° 0.2 mm 3 mps 749 mmHg 98%
    06:00 +10°C° 0 mm 3 mps 748 mmHg 99%
    07:00 +12°C° 0 mm 2 mps 748 mmHg 99%
    08:00 +12°C° 0 mm 2 mps 748 mmHg 99%
    09:00 +13°C° 0.6 mm 3 mps 747 mmHg 93%
    10:00 +14°C° 0.6 mm 4 mps 747 mmHg 88%
    11:00 +17°C° 0.6 mm 4 mps 746 mmHg 83%
    12:00 +15°C° 0.4 mm 5 mps 746 mmHg 85%
    13:00 +14°C° 0.4 mm 6 mps 745 mmHg 87%
    14:00 +13°C° 0.4 mm 6 mps 745 mmHg 90%
    15:00 +9°C° 0.4 mm 6 mps 745 mmHg 91%
    16:00 +7°C° 0.4 mm 6 mps 745 mmHg 92%
    17:00 +4°C° 0.4 mm 6 mps 745 mmHg 93%
    18:00 +3°C° 0.2 mm 6 mps 745 mmHg 93%
    19:00 +2°C° 0.2 mm 7 mps 745 mmHg 93%
    20:00 +2°C° 0.2 mm 7 mps 745 mmHg 93%
    21:00 +1°C° 0.1 mm 6 mps 745 mmHg 94%
    22:00 +1°C° 0.1 mm 6 mps 746 mmHg 95%
    23:00 +1°C° 0.1 mm 5 mps 746 mmHg 96%

    Day after tomorrow, 22 May, Wednesday

    Time Temperature Precipitation Wind Pressure Humidity
    00:00 +2°C° 0.1 mm 7 mps 746 mmHg 95%
    01:00 +1°C° 0.1 mm 9 mps 747 mmHg 94%
    02:00 +1°C° 0.1 mm 10 mps 748 mmHg 93%
    03:00 +1°C° 0.2 mm 10 mps 749 mmHg 93%
    04:00 +1°C° 0.2 mm 10 mps 750 mmHg 92%
    05:00 +1°C° 0.2 mm 10 mps 751 mmHg 92%
    06:00 +1°C° 0.1 mm 10 mps 752 mmHg 91%
    07:00 0°C° 0.1 mm 10 mps 754 mmHg 90%
    08:00 0°C° 0.1 mm 10 mps 755 mmHg 90%
    09:00 +1°C° 0 mm 10 mps 756 mmHg 87%
    10:00 +1°C° 0 mm 10 mps 757 mmHg 85%
    11:00 +2°C° 0 mm 10 mps 759 mmHg 83%
    12:00 +2°C° 0 mm 10 mps 759 mmHg 79%
    13:00 +3°C° 0 mm 10 mps 760 mmHg 76%
    14:00 +3°C° 0 mm 10 mps 761 mmHg 73%
    15:00 +3°C° 0 mm 9 mps 761 mmHg 71%
    16:00 +3°C° 0 mm 9 mps 762 mmHg 69%
    17:00 +5°C° 0 mm 8 mps 762 mmHg 68%
    18:00 +4°C° 0 mm 7 mps 763 mmHg 70%
    19:00 +3°C° 0 mm 6 mps 763 mmHg 73%
    20:00 +2°C° 0 mm 6 mps 764 mmHg 76%
    21:00 +2°C° 0 mm 5 mps 764 mmHg 76%
    22:00 +2°C° 0 mm 5 mps 764 mmHg 77%
    23:00 +2°C° 0 mm 5 mps 764 mmHg 78%

    23 May, Thursday

    Time Temperature Precipitation Wind Pressure Humidity
    00:00 +2°C° 0 mm 5 mps 764 mmHg 79%
    01:00 +2°C° 0 mm 5 mps 764 mmHg 80%
    02:00 +2°C° 0 mm 5 mps 764 mmHg 80%
    03:00 +2°C° 0 mm 5 mps 764 mmHg 82%
    04:00 +2°C° 0 mm 5 mps 764 mmHg 85%
    05:00 +2°C° 0 mm 5 mps 765 mmHg 87%
    06:00 +3°C° 0 mm 6 mps 765 mmHg 80%
    07:00 +5°C° 0 mm 6 mps 765 mmHg 74%
    08:00 +7°C° 0 mm 6 mps 765 mmHg 68%
    09:00 +8°C° 0 mm 6 mps 765 mmHg 65%
    10:00 +8°C° 0 mm 6 mps 765 mmHg 63%
    11:00 +9°C° 0 mm 6 mps 764 mmHg 61%
    12:00 +9°C° 0 mm 6 mps 764 mmHg 60%
    13:00 +9°C° 0 mm 5 mps 764 mmHg 59%
    14:00 +9°C° 0 mm 5 mps 764 mmHg 58%
    15:00 +9°C° 0 mm 5 mps 764 mmHg 58%
    16:00 +10°C° 0 mm 4 mps 764 mmHg 58%
    17:00 +9°C° 0 mm 3 mps 764 mmHg 59%
    18:00 +8°C° 0 mm 2 mps 764 mmHg 62%
    19:00 +7°C° 0 mm 2 mps 764 mmHg 66%
    20:00 +6°C° 0 mm 1 mps 764 mmHg 70%
    21:00 +6°C° 0 mm 1 mps 764 mmHg 69%
    22:00 +6°C° 0 mm 1 mps 764 mmHg 67%
    23:00 +5°C° 0 mm 0 mps 764 mmHg 66%

    24 May, Friday

    Time Temperature Precipitation Wind Pressure Humidity
    00:00 +5°C° 0 mm 1 mps 764 mmHg 65%
    01:00 +5°C° 0 mm 1 mps 763 mmHg 65%
    02:00 +5°C° 0 mm 1 mps 763 mmHg 64%
    03:00 +5°C° 0 mm 1 mps 763 mmHg 66%
    04:00 +5°C° 0 mm 1 mps 763 mmHg 67%
    05:00 +4°C° 0 mm 0 mps 763 mmHg 69%
    06:00 +7°C° 0 mm 1 mps 763 mmHg 66%
    07:00 +9°C° 0 mm 1 mps 763 mmHg 63%
    08:00 +11°C° 0 mm 1 mps 764 mmHg 61%
    09:00 +12°C° 0 mm 2 mps 764 mmHg 59%
    10:00 +13°C° 0 mm 2 mps 764 mmHg 57%
    11:00 +13°C° 0 mm 3 mps 764 mmHg 55%
    12:00 +13°C° 0 mm 3 mps 764 mmHg 55%
    13:00 +13°C° 0 mm 3 mps 764 mmHg 54%
    14:00 +14°C° 0 mm 3 mps 764 mmHg 54%
    15:00 +13°C° 0 mm 3 mps 764 mmHg 55%
    16:00 +13°C° 0 mm 3 mps 764 mmHg 56%
    17:00 +13°C° 0 mm 3 mps 764 mmHg 57%
    18:00 +12°C° 0 mm 2 mps 764 mmHg 62%
    19:00 +9°C° 0 mm 2 mps 765 mmHg 67%
    20:00 +8°C° 0 mm 1 mps 765 mmHg 72%
    21:00 +8°C° 0 mm 1 mps 765 mmHg 74%
    22:00 +6°C° 0 mm 2 mps 765 mmHg 75%
    23:00 +6°C° 0 mm 2 mps 766 mmHg 76%

    25 May, Saturday

    Time Temperature Precipitation Wind Pressure Humidity
    00:00 +5°C° 0 mm 2 mps 765 mmHg 75%
    01:00 +5°C° 0 mm 2 mps 765 mmHg 74%
    02:00 +4°C° 0 mm 3 mps 765 mmHg 72%
    03:00 +4°C° 0 mm 3 mps 766 mmHg 73%
    04:00 +5°C° 0 mm 2 mps 766 mmHg 73%
    05:00 +5°C° 0 mm 2 mps 766 mmHg 73%
    06:00 +5°C° 0 mm 3 mps 766 mmHg 71%
    07:00 +8°C° 0 mm 3 mps 766 mmHg 69%
    08:00 +10°C° 0 mm 3 mps 766 mmHg 68%
    09:00 +12°C° 0 mm 3 mps 766 mmHg 64%
    10:00 +13°C° 0 mm 3 mps 766 mmHg 59%
    11:00 +16°C° 0 mm 2 mps 766 mmHg 55%
    12:00 +16°C° 0 mm 3 mps 765 mmHg 53%
    13:00 +17°C° 0 mm 3 mps 765 mmHg 50%
    14:00 +18°C° 0 mm 3 mps 765 mmHg 48%
    15:00 +18°C° 0 mm 3 mps 764 mmHg 51%
    16:00 +18°C° 0 mm 3 mps 764 mmHg 54%
    17:00 +17°C° 0 mm 4 mps 764 mmHg 58%
    18:00 +14°C° 0 mm 5 mps 764 mmHg 57%
    19:00 +13°C° 0 mm 6 mps 764 mmHg 57%
    20:00 +10°C° 0 mm 7 mps 763 mmHg 56%
    21:00 +9°C° 0 mm 6 mps 764 mmHg 60%
    22:00 +8°C° 0 mm 6 mps 764 mmHg 63%
    23:00 +7°C° 0 mm 5 mps 764 mmHg 66%
    Show more